STARLINK-11164 [DTC] (60120 NORAD) Tracking and Keplerian Element Data

This shows tracking and keplerian element data for the satellite.

Feedback or suggestion? Click here.




ElementValue
Catalog60120
NameSTARLINK-11164 [DTC]
Epoch Orbit1744
Epoch Day286.82822498
Epoch Year2024
RAAN229.4067
Inclination53.1586
Eccentricity0.0002275
Argument of Perigee75.892
Mean Anonmoly284.235
Mean Motion15.69738213
Decay Rate1.418E-05
L11 60120U 24118H 24286.82822498 .00001418 00000+0 16560-4 0 9995
L22 60120 53.1586 229.4067 0002275 75.8920 284.2350 15.69738213 17441



Live tracking and technical data element details for STARLINK-11164 [DTC] (NORAD 60120). STARLINK-11164 [DTC] can be tracked NOW for your location showing map with azimuth and elevation plus other details from your city location.







IsCatalogInMostPopularTable: catalog: 60120, numindb: 10
Update: records affected: 1



GetName: 60120 STARLINK-11164 [DTC]

Hit Count: updated at: Thu, 23 Jan 2025 15:07:31 GMT